Change the Weather History Date:

Wednesday, December 5, 2012

  Actual Average Record
Temperature  
Mean Temperature 34 °F -  
Max Temperature 38 °F - - ()
Min Temperature 29 °F - - ()
Degree Days  
Heating Degree Days 32    
Moisture  
Dew Point 24 °F    
Average Humidity 60    
Maximum Humidity 84    
Minimum Humidity 32    
Precipitation  
Precipitation 0.00 in - - ()
Sea Level Pressure  
Sea Level Pressure 30.22 in    
Wind  
Wind Speed 11 mph ()    
Max Wind Speed 17 mph    
Max Gust Speed 29 mph    
T = Trace of Precipitation, MM = Missing Value Source: Averaged Metar Reports

Daily Weather History Graph

Daily Weather History Graph

Search for Another Location

Airport or City:

Trip Planner

Search our weather history database for the weather conditions in past years. The results will help you decide how hot, cold, wet, or windy it might be!

Date:

Astronomy

Dec. 05, 2012 Rise Set
Actual Time 7:34 AM EST 4:42 PM EST
Civil Twilight 7:02 AM EST 5:14 PM EST
Nautical Twilight 6:26 AM EST 5:50 PM EST
Astronomical Twilight 5:52 AM EST 6:24 PM EST
Moon 11:38 PM EST (12/5) 11:49 AM EST (12/5)
Length of Visible Light 10h 12m
Length of Day
9h 08m
Waning Gibbous, 60% of the Moon is Illuminated
Dec 5
Waning Gibbous
Dec 6
Last Quarter
Dec 13
New
Dec 20
First Quarter
Dec 28
Full

Hourly Weather History & Observations

Time (EST) Temp. Windchill Dew Point Humidity Pressure Visibility Wind Dir Wind Speed Gust Speed Precip Events Conditions
12:00 AM 44.1 °F 38.6 °F 39.4 °F 84% 29.96 in - West 10.4 mph - N/A   Unknown
1:00 AM 44 °F - 37 °F 68% 29.98 in - West 10.4 mph - -  
1:00 AM 43.5 °F 37.9 °F 37.0 °F 78% 29.98 in - West 10.4 mph - N/A   Unknown
2:00 AM 41.4 °F 36.2 °F 35.6 °F 80% 30.00 in - West 8.1 mph - N/A   Unknown
3:00 AM 41.9 °F 36.9 °F 36.1 °F 80% 30.04 in - West 8.1 mph - N/A   Unknown
4:00 AM 40.3 °F 31.9 °F 32.9 °F 75% 30.07 in - NW 16.1 mph 23.0 mph N/A   Unknown
5:00 AM 38.7 °F 30.5 °F 29.7 °F 70% 30.09 in - NW 13.8 mph - N/A   Unknown
6:00 AM 37.8 °F 29.4 °F 26.1 °F 63% 30.12 in - NNW 13.8 mph 19.6 mph N/A   Unknown
7:00 AM 37 °F - 22 °F 42% 30.16 in - NW 17.3 mph - -  
7:00 AM 36.7 °F 26.9 °F 22.1 °F 56% 30.16 in - NW 17.3 mph 28.8 mph N/A   Unknown
10:00 AM 36.1 °F 27.3 °F 25.7 °F 66% 30.22 in - NW 13.8 mph 19.6 mph N/A   Unknown
11:00 AM 36.5 °F 27.8 °F 22.5 °F 57% 30.24 in - NW 13.8 mph 21.9 mph N/A   Unknown
12:00 PM 36.0 °F 26.3 °F 20.5 °F 53% 30.25 in - NW 16.1 mph 27.6 mph N/A   Unknown
1:00 PM 37 °F - 18 °F 32% 30.26 in - NW 17.3 mph - -  
1:00 PM 36.7 °F 26.9 °F 18.0 °F 47% 30.26 in - NW 17.3 mph 24.2 mph N/A   Unknown
2:00 PM 36.1 °F 27.3 °F 18.9 °F 50% 30.27 in - NW 13.8 mph 20.7 mph N/A   Unknown
3:00 PM 35.1 °F 25.5 °F 19.2 °F 53% 30.29 in - North 15.0 mph 20.7 mph N/A   Unknown
4:00 PM 34.7 °F 25.9 °F 18.7 °F 52% 30.33 in - North 12.7 mph 21.9 mph N/A   Unknown
5:00 PM 33.3 °F 23.7 °F 21.0 °F 61% 30.35 in - North 13.8 mph 21.9 mph N/A   Unknown
6:00 PM 31.8 °F 22.3 °F 19.0 °F 59% 30.38 in - North 12.7 mph 19.6 mph N/A   Unknown
7:00 PM 31 °F - 18 °F 45% 30.38 in - North 10.4 mph - -  
7:00 PM 31.1 °F 22.4 °F 18.0 °F 58% 30.38 in - North 10.4 mph - N/A   Unknown
8:00 PM 30.7 °F 22.6 °F 19.0 °F 62% 30.38 in - North 9.2 mph - N/A   Unknown
9:00 PM 30.2 °F 21.9 °F 17.2 °F 59% 30.36 in - NNE 9.2 mph - N/A   Unknown
10:00 PM 29.5 °F 22.5 °F 17.4 °F 61% 30.37 in - North 6.9 mph - N/A   Unknown
11:00 PM 29.8 °F 23.9 °F 17.8 °F 61% 30.37 in - North 5.8 mph - N/A   Unknown